This demonstration page uses our WeatherBlox Daily Observations layout. Learn more.

Left ArrowRight Arrow

Hourly Observations for March 23, 2019

Temp ( °F °C ) Dew Point ( °F °C ) Humidity (%) Winds ( mph kmh ) Pressure ( in mb ) Visibility ( mi km ) Precip ( " mm )
12:57 am 00:57 Cloudy with Light Rain 44 6.7 39 3.9 83 83 E 9 15 30.06 1018 10 16 0.01 0.25
1:57 am 01:57 Cloudy 44 6.7 39 3.9 83 83 E 10 17 30.04 1017 10 16 0.00 0.03
2:57 am 02:57 Mostly Cloudy 45 7.2 37 2.8 74 74 ESE 15 24 30.01 1016 10 16 0.00 0.00
3:57 am 03:57 Cloudy 45 7.2 37 2.8 74 74 ESE 13 20 29.99 1016 10 16 0.00 0.00
4:57 am 04:57 Cloudy with Light Rain 44 6.7 38 3.3 79 79 ESE 9 15 29.97 1015 10 16 0.00 0.03
5:57 am 05:57 Cloudy 43 6.1 37 2.8 80 80 ESE 10 17 30.00 1016 10 16 0.00 0.03
6:57 am 06:57 Cloudy 42 5.6 37 2.8 82 82 E 10 17 30.00 1016 10 16 0.00 0.03
7:57 am 07:57 Cloudy 41 5 37 2.8 86 86 E 10 17 30.01 1016 10 16 0.00 0.00
8:57 am 08:57 Cloudy 41 5 38 3.3 89 89 E 10 17 30.03 1017 10 16 0.00 0.00
9:57 am 09:57 Cloudy 42 5.6 39 3.9 89 89 E 15 24 30.01 1016 10 16 0.00 0.00
10:57 am 10:57 Cloudy 44 6.7 38 3.3 79 79 E 17 28 30.01 1016 10 16 0.00 0.00
11:57 am 11:57 Cloudy 45 7.2 38 3.3 77 77 E 20 31 29.99 1016 10 16 0.00 0.00
12:11 pm 12:11 Cloudy 45 7 37 3 76 76 E 16 26 30.01 1016 10 16 0.00 0.00
12:57 pm 12:57 Cloudy 45 7.2 38 3.3 77 77 E 17 28 29.98 1015 10 16 0.00 0.00
1:57 pm 13:57 Cloudy 47 8.3 38 3.3 71 71 E 17 28 29.95 1014 10 16 0.00 0.00
2:57 pm 14:57 Cloudy 50 10 40 4.4 68 68 E 18 30 29.92 1013 10 16 0.00 0.00
3:07 pm 15:07 Cloudy 50 10 39 4 67 67 E 18 30 29.92 1013 10 16 0.00 0.00
3:57 pm 15:57 Mostly Sunny 52 11.1 42 5.6 69 69 E 18 30 29.87 1012 10 16 0.00 0.00
4:57 pm 16:57 Cloudy 52 11.1 42 5.6 69 69 ENE 21 33 29.84 1011 10 16 0.00 0.00
5:28 pm 17:28 Cloudy 52 11 43 6 72 72 ENE 23 37 29.83 1010 10 16 0.00 0.00
5:55 pm 17:55 Cloudy with Light Rain 48 9 43 6 82 82 ENE 28 44 29.82 1010 10 16 0.00 0.03
5:57 pm 17:57 Cloudy with Nearby Thunderstorms 49 9.4 43 6.1 80 80 ENE 28 44 29.81 1010 10 16 0.00 0.03
6:01 pm 18:01 Cloudy with Nearby Thunderstorms 48 9 43 6 82 82 ENE 25 41 29.82 1010 10 16 0.00 0.00
6:19 pm 18:19 Cloudy with Nearby Thunderstorms 48 9 43 6 82 82 ENE 23 37 29.83 1010 9 14 0.02 0.51
6:57 pm 18:57 Cloudy with Thunderstorms 46 7.8 44 6.7 93 93 ENE 17 28 29.85 1011 5 8 0.31 7.87
7:32 pm 19:32 Cloudy with Strong Thunderstorms 46 8 43 6 87 87 E 10 17 29.87 1012 6 10 0.07 1.78
7:57 pm 19:57 Cloudy with Nearby Thunderstorms 47 8.3 44 6.7 90 90 E 22 35 29.85 1011 9 14 0.42 10.67
8:04 pm 20:04 Cloudy with Nearby Thunderstorms 46 8 45 7 93 93 ENE 18 30 29.86 1011 10 16 0.00 0.00
8:10 pm 20:10 Cloudy with Nearby Thunderstorms 46 8 45 7 93 93 ENE 18 30 29.85 1011 10 16 0.00 0.03
8:18 pm 20:18 Cloudy with Nearby Thunderstorms 46 8 43 6 87 87 ENE 23 37 29.85 1011 10 16 0.00 0.03
8:32 pm 20:32 Cloudy 45 7 43 6 93 93 NE 17 28 29.87 1012 9 14 0.00 0.03
9:16 pm 21:16 Cloudy with Mist and Fog 45 7 43 6 93 93 NE 17 28 29.88 1012 6 10 0.00 0.00
9:57 pm 21:57 Partly Cloudy with Mist and Fog 43 6.1 42 5.6 97 97 ENE 12 19 29.87 1012 5 8 0.00 0.00
10:43 pm 22:43 Mostly Cloudy 45 7 43 6 93 93 ENE 12 19 29.89 1012 10 16 0.00 0.00
10:57 pm 22:57 Cloudy 45 7.2 43 6.1 93 93 NE 12 19 29.87 1012 10 16 0.00 0.00
11:06 pm 23:06 Cloudy 45 7 43 6 93 93 ENE 14 22 29.89 1012 10 16 0.00 0.00
11:17 pm 23:17 Cloudy 45 7 45 7 100 100 ENE 18 30 29.89 1012 10 16 0.00 0.00
11:25 pm 23:25 Cloudy 45 7 43 6 93 93 ENE 20 31 29.89 1012 9 14 0.00 0.00
11:57 pm 23:57 Cloudy with Mist and Fog 44 6.7 43 6.1 96 96 NE 16 26 29.88 1012 5 8 0.00 0.00

Powered by AerisWeather